Year,Month,Day,Hour,Minute,Value (Times are PST for temperature in C)
2012,07,05,00,00,11.30
2012,07,05,00,01,11.20
2012,07,05,00,02,11.20
2012,07,05,00,03,11.20
2012,07,05,00,04,11.20
2012,07,05,00,05,11.10
2012,07,05,00,06,11.10
2012,07,05,00,07,11.10
2012,07,05,00,08,11.10
2012,07,05,00,09,11.10
2012,07,05,00,10,11.10
2012,07,05,00,11,11.10
2012,07,05,00,12,11.10
2012,07,05,00,13,11.00
2012,07,05,00,14,11.00
2012,07,05,00,15,11.00
2012,07,05,00,16,10.90
2012,07,05,00,17,10.90
2012,07,05,00,18,10.90
2012,07,05,00,19,10.80
2012,07,05,00,20,10.80
2012,07,05,00,21,10.80
2012,07,05,00,22,10.80
2012,07,05,00,23,10.80
2012,07,05,00,24,10.80
2012,07,05,00,25,10.80
2012,07,05,00,26,10.80
2012,07,05,00,27,10.70
2012,07,05,00,28,10.70
2012,07,05,00,29,10.60
2012,07,05,00,30,10.60
2012,07,05,00,31,10.60
2012,07,05,00,32,10.50
2012,07,05,00,33,10.50
2012,07,05,00,34,10.50
2012,07,05,00,35,10.50
2012,07,05,00,36,10.50
2012,07,05,00,37,10.50
2012,07,05,00,38,10.50
2012,07,05,00,39,10.40
2012,07,05,00,40,10.40
2012,07,05,00,41,10.30
2012,07,05,00,42,10.30
2012,07,05,00,43,10.30
2012,07,05,00,44,10.40
2012,07,05,00,45,10.40
2012,07,05,00,46,10.30
2012,07,05,00,47,10.30
2012,07,05,00,48,10.20
2012,07,05,00,49,10.20
2012,07,05,00,50,10.10
2012,07,05,00,51,10.10
2012,07,05,00,52,10.00
2012,07,05,00,53,9.90
2012,07,05,00,54,9.90
2012,07,05,00,55,9.90
2012,07,05,00,56,9.80
2012,07,05,00,57,9.80
2012,07,05,00,58,9.70
2012,07,05,00,59,9.70
2012,07,05,01,00,9.70
2012,07,05,01,01,9.60
2012,07,05,01,02,9.60
2012,07,05,01,03,9.70
2012,07,05,01,04,9.70
2012,07,05,01,05,9.60
2012,07,05,01,06,9.60
2012,07,05,01,07,9.60
2012,07,05,01,08,9.60
2012,07,05,01,09,9.60
2012,07,05,01,10,9.60
2012,07,05,01,11,9.60
2012,07,05,01,12,9.50
2012,07,05,01,13,9.50
2012,07,05,01,14,9.40
2012,07,05,01,15,9.40
2012,07,05,01,16,9.40
2012,07,05,01,17,9.40
2012,07,05,01,18,9.30
2012,07,05,01,19,9.30
2012,07,05,01,20,9.20
2012,07,05,01,21,9.20
2012,07,05,01,22,9.20
2012,07,05,01,23,9.10
2012,07,05,01,24,9.10
2012,07,05,01,25,9.00
2012,07,05,01,26,9.00
2012,07,05,01,27,9.00
2012,07,05,01,28,9.00
2012,07,05,01,29,8.90
2012,07,05,01,30,8.90
2012,07,05,01,31,8.90
2012,07,05,01,32,8.90
2012,07,05,01,33,8.90
2012,07,05,01,34,8.90
2012,07,05,01,35,8.90
2012,07,05,01,36,8.90
2012,07,05,01,37,8.90
2012,07,05,01,38,8.80
2012,07,05,01,39,8.80
2012,07,05,01,40,8.80
2012,07,05,01,41,8.80
2012,07,05,01,42,8.80
2012,07,05,01,43,8.80
2012,07,05,01,44,8.80
2012,07,05,01,45,8.80
2012,07,05,01,46,8.70
2012,07,05,01,47,8.70
2012,07,05,01,48,8.70
2012,07,05,01,49,8.70
2012,07,05,01,50,8.70
2012,07,05,01,51,8.70
2012,07,05,01,52,8.70
2012,07,05,01,53,8.60
2012,07,05,01,54,8.60
2012,07,05,01,55,8.60
2012,07,05,01,56,8.60
2012,07,05,01,57,8.60
2012,07,05,01,58,8.50
2012,07,05,01,59,8.50
2012,07,05,02,00,8.50
2012,07,05,02,01,8.50
2012,07,05,02,02,8.40
2012,07,05,02,03,8.40
2012,07,05,02,04,8.40
2012,07,05,02,05,8.40
2012,07,05,02,06,8.30
2012,07,05,02,07,8.30
2012,07,05,02,08,8.30
2012,07,05,02,09,8.30
2012,07,05,02,10,8.30
2012,07,05,02,11,8.30
2012,07,05,02,12,8.30
2012,07,05,02,13,8.30
2012,07,05,02,14,8.30
2012,07,05,02,15,8.30
2012,07,05,02,16,8.20
2012,07,05,02,17,8.20
2012,07,05,02,18,8.20
2012,07,05,02,19,8.20
2012,07,05,02,20,8.20
2012,07,05,02,21,8.20
2012,07,05,02,22,8.20
2012,07,05,02,23,8.20
2012,07,05,02,24,8.20
2012,07,05,02,25,8.20
2012,07,05,02,26,8.20
2012,07,05,02,27,8.10
2012,07,05,02,28,8.10
2012,07,05,02,29,8.10
2012,07,05,02,30,8.10
2012,07,05,02,31,8.10
2012,07,05,02,32,8.10
2012,07,05,02,33,8.10
2012,07,05,02,34,8.10
2012,07,05,02,35,8.10
2012,07,05,02,36,8.10
2012,07,05,02,37,8.10
2012,07,05,02,38,8.10
2012,07,05,02,39,8.10
2012,07,05,02,40,8.10
2012,07,05,02,41,8.10
2012,07,05,02,42,8.10
2012,07,05,02,43,8.10
2012,07,05,02,44,8.00
2012,07,05,02,45,8.00
2012,07,05,02,46,7.90
2012,07,05,02,47,7.90
2012,07,05,02,48,7.90
2012,07,05,02,49,7.90
2012,07,05,02,50,7.90
2012,07,05,02,51,7.80
2012,07,05,02,52,7.80
2012,07,05,02,53,7.80
2012,07,05,02,54,7.80
2012,07,05,02,55,7.80
2012,07,05,02,56,7.70
2012,07,05,02,57,7.70
2012,07,05,02,58,7.70
2012,07,05,02,59,7.70
2012,07,05,03,00,7.70
2012,07,05,03,01,7.70
2012,07,05,03,02,7.60
2012,07,05,03,03,7.60
2012,07,05,03,04,7.60
2012,07,05,03,05,7.60
2012,07,05,03,06,7.60
2012,07,05,03,07,7.60
2012,07,05,03,08,7.50
2012,07,05,03,09,7.50
2012,07,05,03,10,7.50
2012,07,05,03,11,7.50
2012,07,05,03,12,7.40
2012,07,05,03,13,7.40
2012,07,05,03,14,7.40
2012,07,05,03,15,7.40
2012,07,05,03,16,7.40
2012,07,05,03,17,7.40
2012,07,05,03,18,7.40
2012,07,05,03,19,7.40
2012,07,05,03,20,7.40
2012,07,05,03,21,7.40
2012,07,05,03,22,7.40
2012,07,05,03,23,7.40
2012,07,05,03,24,7.40
2012,07,05,03,25,7.40
2012,07,05,03,26,7.40
2012,07,05,03,27,7.50
2012,07,05,03,28,7.40
2012,07,05,03,29,7.40
2012,07,05,03,30,7.40
2012,07,05,03,31,7.40
2012,07,05,03,32,7.40
2012,07,05,03,33,7.30
2012,07,05,03,34,7.30
2012,07,05,03,35,7.30
2012,07,05,03,36,7.30
2012,07,05,03,37,7.30
2012,07,05,03,38,7.20
2012,07,05,03,39,7.20
2012,07,05,03,40,7.20
2012,07,05,03,41,7.20
2012,07,05,03,42,7.20
2012,07,05,03,43,7.20
2012,07,05,03,44,7.20
2012,07,05,03,45,7.20
2012,07,05,03,46,7.20
2012,07,05,03,47,7.20
2012,07,05,03,48,7.20
2012,07,05,03,49,7.20
2012,07,05,03,50,7.20
2012,07,05,03,51,7.20
2012,07,05,03,52,7.20
2012,07,05,03,53,7.20
2012,07,05,03,54,7.20
2012,07,05,03,55,7.20
2012,07,05,03,56,7.20
2012,07,05,03,57,7.20
2012,07,05,03,58,7.20
2012,07,05,03,59,7.20
2012,07,05,04,00,7.10
2012,07,05,04,01,7.10
2012,07,05,04,02,7.10
2012,07,05,04,03,7.10
2012,07,05,04,04,7.10
2012,07,05,04,05,7.00
2012,07,05,04,06,7.00
2012,07,05,04,07,7.00
2012,07,05,04,08,7.00
2012,07,05,04,09,7.00
2012,07,05,04,10,7.00
2012,07,05,04,11,7.00
2012,07,05,04,12,7.00
2012,07,05,04,13,7.00
2012,07,05,04,14,6.90
2012,07,05,04,15,6.90
2012,07,05,04,16,6.90
2012,07,05,04,17,6.90
2012,07,05,04,18,6.90
2012,07,05,04,19,6.90
2012,07,05,04,20,6.90
2012,07,05,04,21,6.90
2012,07,05,04,22,6.90
2012,07,05,04,23,6.90
2012,07,05,04,24,6.90
2012,07,05,04,25,6.90
2012,07,05,04,26,6.90
2012,07,05,04,27,6.90
2012,07,05,04,28,6.90
2012,07,05,04,29,6.90
2012,07,05,04,30,6.90
2012,07,05,04,31,6.90
2012,07,05,04,32,6.90
2012,07,05,04,33,6.90
2012,07,05,04,34,6.90
2012,07,05,04,35,6.90
2012,07,05,04,36,6.90
2012,07,05,04,37,7.00
2012,07,05,04,38,6.90
2012,07,05,04,39,6.90
2012,07,05,04,40,6.90
2012,07,05,04,41,6.90
2012,07,05,04,42,6.90
2012,07,05,04,43,6.90
2012,07,05,04,44,6.90
2012,07,05,04,45,6.90
2012,07,05,04,46,6.90
2012,07,05,04,47,6.90
2012,07,05,04,48,6.90
2012,07,05,04,49,6.80
2012,07,05,04,50,6.80
2012,07,05,04,51,6.80
2012,07,05,04,52,6.80
2012,07,05,04,53,6.80
2012,07,05,04,54,6.80
2012,07,05,04,55,6.80
2012,07,05,04,56,6.80
2012,07,05,04,57,6.80
2012,07,05,04,58,6.80
2012,07,05,04,59,6.70
2012,07,05,05,00,6.70
2012,07,05,05,01,6.70
2012,07,05,05,02,6.70
2012,07,05,05,03,6.70
2012,07,05,05,04,6.70
2012,07,05,05,05,6.70
2012,07,05,05,06,6.70
2012,07,05,05,07,6.70
2012,07,05,05,08,6.70
2012,07,05,05,09,6.70
2012,07,05,05,10,6.70
2012,07,05,05,11,6.70
2012,07,05,05,12,6.70
2012,07,05,05,13,6.70
2012,07,05,05,14,6.60
2012,07,05,05,15,6.60
2012,07,05,05,16,6.60
2012,07,05,05,17,6.60
2012,07,05,05,18,6.60
2012,07,05,05,19,6.60
2012,07,05,05,20,6.60
2012,07,05,05,21,6.60
2012,07,05,05,22,6.60
2012,07,05,05,23,6.50
2012,07,05,05,24,6.50
2012,07,05,05,25,6.50
2012,07,05,05,26,6.40
2012,07,05,05,27,6.40
2012,07,05,05,28,6.40
2012,07,05,05,29,6.40
2012,07,05,05,30,6.40
2012,07,05,05,31,6.40
2012,07,05,05,32,6.40
2012,07,05,05,33,6.40
2012,07,05,05,34,6.40
2012,07,05,05,35,6.40
2012,07,05,05,36,6.40
2012,07,05,05,37,6.40
2012,07,05,05,38,6.50
2012,07,05,05,39,6.50
2012,07,05,05,40,6.50
2012,07,05,05,41,6.50
2012,07,05,05,42,6.50
2012,07,05,05,43,6.50
2012,07,05,05,44,6.50
2012,07,05,05,45,6.50
2012,07,05,05,46,6.50
2012,07,05,05,47,6.60
2012,07,05,05,48,6.60
2012,07,05,05,49,6.60
2012,07,05,05,50,6.60
2012,07,05,05,51,6.60
2012,07,05,05,52,6.60
2012,07,05,05,53,6.60
2012,07,05,05,54,6.60
2012,07,05,05,55,6.60
2012,07,05,05,56,6.60
2012,07,05,05,57,6.60
2012,07,05,05,58,6.60
2012,07,05,05,59,6.60
2012,07,05,06,00,6.60
2012,07,05,06,01,6.60
2012,07,05,06,02,6.60
2012,07,05,06,03,6.60
2012,07,05,06,04,6.60
2012,07,05,06,05,6.60
2012,07,05,06,06,6.60
2012,07,05,06,07,6.60
2012,07,05,06,08,6.60
2012,07,05,06,09,6.60
2012,07,05,06,10,6.60
2012,07,05,06,11,6.60
2012,07,05,06,12,6.70
2012,07,05,06,13,6.70
2012,07,05,06,14,6.70
2012,07,05,06,15,6.70
2012,07,05,06,16,6.70
2012,07,05,06,17,6.80
2012,07,05,06,18,6.80
2012,07,05,06,19,6.80
2012,07,05,06,20,6.90
2012,07,05,06,21,6.90
2012,07,05,06,22,7.00
2012,07,05,06,23,7.00
2012,07,05,06,24,7.00
2012,07,05,06,25,7.10
2012,07,05,06,26,7.10
2012,07,05,06,27,7.10
2012,07,05,06,28,7.20
2012,07,05,06,29,7.20
2012,07,05,06,30,7.20
2012,07,05,06,31,7.30
2012,07,05,06,32,7.30
2012,07,05,06,33,7.30
2012,07,05,06,34,7.30
2012,07,05,06,35,7.30
2012,07,05,06,36,7.40
2012,07,05,06,37,7.40
2012,07,05,06,38,7.50
2012,07,05,06,39,7.50
2012,07,05,06,40,7.60
2012,07,05,06,41,7.60
2012,07,05,06,42,7.70
2012,07,05,06,43,7.70
2012,07,05,06,44,7.80
2012,07,05,06,45,7.80
2012,07,05,06,46,7.90
2012,07,05,06,47,7.90
2012,07,05,06,48,8.00
2012,07,05,06,49,8.10
2012,07,05,06,50,8.10
2012,07,05,06,51,8.20
2012,07,05,06,52,8.30
2012,07,05,06,53,8.30
2012,07,05,06,54,8.40
2012,07,05,06,55,8.40
2012,07,05,06,56,8.50
2012,07,05,06,57,8.50
2012,07,05,06,58,8.50
2012,07,05,06,59,8.60
2012,07,05,07,00,8.60
2012,07,05,07,01,8.70
2012,07,05,07,02,8.80
2012,07,05,07,03,8.80
2012,07,05,07,04,8.90
2012,07,05,07,05,9.00
2012,07,05,07,06,9.10
2012,07,05,07,07,9.30
2012,07,05,07,08,9.40
2012,07,05,07,09,9.50
2012,07,05,07,10,9.70
2012,07,05,07,11,9.80
2012,07,05,07,12,9.90
2012,07,05,07,13,10.00
2012,07,05,07,14,10.10
2012,07,05,07,15,10.10
2012,07,05,07,16,10.20
2012,07,05,07,17,10.30
2012,07,05,07,18,10.40
2012,07,05,07,19,10.50
2012,07,05,07,20,10.50
2012,07,05,07,21,10.60
2012,07,05,07,22,10.70
2012,07,05,07,23,10.90
2012,07,05,07,24,11.00
2012,07,05,07,25,11.10
2012,07,05,07,26,11.20
2012,07,05,07,27,11.30
2012,07,05,07,28,11.50
2012,07,05,07,29,11.60
2012,07,05,07,30,11.70
2012,07,05,07,31,11.80
2012,07,05,07,32,11.90
2012,07,05,07,33,12.00
2012,07,05,07,34,12.10
2012,07,05,07,35,12.20
2012,07,05,07,36,12.30
2012,07,05,07,37,12.40
2012,07,05,07,38,12.50
2012,07,05,07,39,12.50
2012,07,05,07,40,12.60
2012,07,05,07,41,12.70
2012,07,05,07,42,12.70
2012,07,05,07,43,12.80
2012,07,05,07,44,12.80
2012,07,05,07,45,12.90
2012,07,05,07,46,12.90
2012,07,05,07,47,12.90
2012,07,05,07,48,12.90
2012,07,05,07,49,12.90
2012,07,05,07,50,12.90
2012,07,05,07,51,12.90
2012,07,05,07,52,13.00
2012,07,05,07,53,13.00
2012,07,05,07,54,13.10
2012,07,05,07,55,13.10
2012,07,05,07,56,13.10
2012,07,05,07,57,13.10
2012,07,05,07,58,13.20
2012,07,05,07,59,13.20
2012,07,05,08,00,13.20
2012,07,05,08,01,13.20
2012,07,05,08,02,13.30
2012,07,05,08,03,13.30
2012,07,05,08,04,13.40
2012,07,05,08,05,13.40
2012,07,05,08,06,13.50
2012,07,05,08,07,13.60
2012,07,05,08,08,13.60
2012,07,05,08,09,13.70
2012,07,05,08,10,13.70
2012,07,05,08,11,13.80
2012,07,05,08,12,13.80
2012,07,05,08,13,13.90
2012,07,05,08,14,14.00
2012,07,05,08,15,14.00
2012,07,05,08,16,14.10
2012,07,05,08,17,14.10
2012,07,05,08,18,14.20
2012,07,05,08,19,14.20
2012,07,05,08,20,14.30
2012,07,05,08,21,14.30
2012,07,05,08,22,14.30
2012,07,05,08,23,14.40
2012,07,05,08,24,14.40
2012,07,05,08,25,14.40
2012,07,05,08,26,14.50
2012,07,05,08,27,14.50
2012,07,05,08,28,14.40
2012,07,05,08,29,14.40
2012,07,05,08,30,14.40
2012,07,05,08,31,14.40
2012,07,05,08,32,14.40
2012,07,05,08,33,14.40
2012,07,05,08,34,14.50
2012,07,05,08,35,14.50
2012,07,05,08,36,14.50
2012,07,05,08,37,14.50
2012,07,05,08,38,14.60
2012,07,05,08,39,14.60
2012,07,05,08,40,14.60
2012,07,05,08,41,14.70
2012,07,05,08,42,14.70
2012,07,05,08,43,14.70
2012,07,05,08,44,14.80
2012,07,05,08,45,14.80
2012,07,05,08,46,14.70
2012,07,05,08,47,14.70
2012,07,05,08,48,14.70
2012,07,05,08,49,14.70
2012,07,05,08,50,14.70
2012,07,05,08,51,14.70
2012,07,05,08,52,14.80
2012,07,05,08,53,14.80
2012,07,05,08,54,14.80
2012,07,05,08,55,14.90
2012,07,05,08,56,14.90
2012,07,05,08,57,15.00
2012,07,05,08,58,15.10
2012,07,05,08,59,15.10
2012,07,05,09,00,15.10
2012,07,05,09,01,15.20
2012,07,05,09,02,15.20
2012,07,05,09,03,15.30
2012,07,05,09,04,15.30
2012,07,05,09,05,15.40
2012,07,05,09,06,15.40
2012,07,05,09,07,15.40
2012,07,05,09,08,15.50
2012,07,05,09,09,15.50
2012,07,05,09,10,15.50
2012,07,05,09,11,15.50
2012,07,05,09,12,15.60
2012,07,05,09,13,15.60
2012,07,05,09,14,15.60
2012,07,05,09,15,15.60
2012,07,05,09,16,15.70
2012,07,05,09,17,15.70
2012,07,05,09,18,15.70
2012,07,05,09,19,15.70
2012,07,05,09,20,15.70
2012,07,05,09,21,15.70
2012,07,05,09,22,15.70
2012,07,05,09,23,15.70
2012,07,05,09,24,15.70
2012,07,05,09,25,15.70
2012,07,05,09,26,15.60
2012,07,05,09,27,15.60
2012,07,05,09,28,15.50
2012,07,05,09,29,15.50
2012,07,05,09,30,15.50
2012,07,05,09,31,15.50
2012,07,05,09,32,15.50
2012,07,05,09,33,15.40
2012,07,05,09,34,15.40
2012,07,05,09,35,15.40
2012,07,05,09,36,15.40
2012,07,05,09,37,15.40
2012,07,05,09,38,15.30
2012,07,05,09,39,15.30
2012,07,05,09,40,15.30
2012,07,05,09,41,15.20
2012,07,05,09,42,15.20
2012,07,05,09,43,15.10
2012,07,05,09,44,15.10
2012,07,05,09,45,15.10
2012,07,05,09,46,15.10
2012,07,05,09,47,15.20
2012,07,05,09,48,15.20
2012,07,05,09,49,15.20
2012,07,05,09,50,15.20
2012,07,05,09,51,15.30
2012,07,05,09,52,15.30
2012,07,05,09,53,15.30
2012,07,05,09,54,15.30
2012,07,05,09,55,15.30
2012,07,05,09,56,15.30
2012,07,05,09,57,15.30
2012,07,05,09,58,15.30
2012,07,05,09,59,15.30
2012,07,05,10,00,15.30
2012,07,05,10,01,15.30
2012,07,05,10,02,15.30
2012,07,05,10,03,15.30
2012,07,05,10,04,15.30
2012,07,05,10,05,15.30
2012,07,05,10,06,15.30
2012,07,05,10,07,15.30
2012,07,05,10,08,15.30
2012,07,05,10,09,15.30
2012,07,05,10,10,15.30
2012,07,05,10,11,15.30
2012,07,05,10,12,15.40
2012,07,05,10,13,15.40
2012,07,05,10,14,15.50
2012,07,05,10,15,15.60
2012,07,05,10,16,15.60
2012,07,05,10,17,15.70
2012,07,05,10,18,15.70
2012,07,05,10,19,15.70
2012,07,05,10,20,15.80
2012,07,05,10,21,15.80
2012,07,05,10,22,15.80
2012,07,05,10,23,15.90
2012,07,05,10,24,15.90
2012,07,05,10,25,15.90
2012,07,05,10,26,15.90
2012,07,05,10,27,15.90
2012,07,05,10,28,15.90
2012,07,05,10,29,15.90
2012,07,05,10,30,15.90
2012,07,05,10,31,15.90
2012,07,05,10,32,15.90
2012,07,05,10,33,15.80
2012,07,05,10,34,15.80
2012,07,05,10,35,15.90
2012,07,05,10,36,16.00
2012,07,05,10,37,16.00
2012,07,05,10,38,16.10
2012,07,05,10,39,16.10
2012,07,05,10,40,16.20
2012,07,05,10,41,16.30
2012,07,05,10,42,16.30
2012,07,05,10,43,16.30
2012,07,05,10,44,16.30
2012,07,05,10,45,16.30
2012,07,05,10,46,16.30
2012,07,05,10,47,16.20
2012,07,05,10,48,16.20
2012,07,05,10,49,16.20
2012,07,05,10,50,16.20
2012,07,05,10,51,16.20
2012,07,05,10,52,16.20
2012,07,05,10,53,16.20
2012,07,05,10,54,16.20
2012,07,05,10,55,16.30
2012,07,05,10,56,16.30
2012,07,05,10,57,16.30
2012,07,05,10,58,16.20
2012,07,05,10,59,16.20
2012,07,05,11,00,16.20
2012,07,05,11,01,16.30
2012,07,05,11,02,16.30
2012,07,05,11,03,16.40
2012,07,05,11,04,16.40
2012,07,05,11,05,16.40
2012,07,05,11,06,16.50
2012,07,05,11,07,16.50
2012,07,05,11,08,16.50
2012,07,05,11,09,16.60
2012,07,05,11,10,16.60
2012,07,05,11,11,16.70
2012,07,05,11,12,16.80
2012,07,05,11,13,16.80
2012,07,05,11,14,16.90
2012,07,05,11,15,16.90
2012,07,05,11,16,16.90
2012,07,05,11,17,16.80
2012,07,05,11,18,16.90
2012,07,05,11,19,16.80
2012,07,05,11,20,16.80
2012,07,05,11,21,16.80
2012,07,05,11,22,16.80
2012,07,05,11,23,16.80
2012,07,05,11,24,16.90
2012,07,05,11,25,16.80
2012,07,05,11,26,16.80
2012,07,05,11,27,16.80
2012,07,05,11,28,16.70
2012,07,05,11,29,16.70
2012,07,05,11,30,16.60
2012,07,05,11,31,16.50
2012,07,05,11,32,16.50
2012,07,05,11,33,16.40
2012,07,05,11,34,16.40
2012,07,05,11,35,16.40
2012,07,05,11,36,16.50
2012,07,05,11,37,16.60
2012,07,05,11,38,16.60
2012,07,05,11,39,16.70
2012,07,05,11,40,16.70
2012,07,05,11,41,16.80
2012,07,05,11,42,16.80
2012,07,05,11,43,16.90
2012,07,05,11,44,17.10
2012,07,05,11,45,17.10
2012,07,05,11,46,17.20
2012,07,05,11,47,17.20
2012,07,05,11,48,17.20
2012,07,05,11,49,17.20
2012,07,05,11,50,17.20
2012,07,05,11,51,17.20
2012,07,05,11,52,17.10
2012,07,05,11,53,17.10
2012,07,05,11,54,17.10
2012,07,05,11,55,17.10
2012,07,05,11,56,17.10
2012,07,05,11,57,17.10
2012,07,05,11,58,17.10
2012,07,05,11,59,17.10
2012,07,05,12,00,17.10
2012,07,05,12,01,17.20
2012,07,05,12,02,17.20
2012,07,05,12,03,17.20
2012,07,05,12,04,17.20
2012,07,05,12,05,17.20
2012,07,05,12,06,17.20
2012,07,05,12,07,17.20
2012,07,05,12,08,17.10
2012,07,05,12,09,17.00
2012,07,05,12,10,16.90
2012,07,05,12,11,16.80
2012,07,05,12,12,16.80
2012,07,05,12,13,16.80
2012,07,05,12,14,16.80
2012,07,05,12,15,16.90
2012,07,05,12,16,16.90
2012,07,05,12,17,17.00
2012,07,05,12,18,17.10
2012,07,05,12,19,17.10
2012,07,05,12,20,17.10
2012,07,05,12,21,17.20
2012,07,05,12,22,17.30
2012,07,05,12,23,17.40
2012,07,05,12,24,17.40
2012,07,05,12,25,17.50
2012,07,05,12,26,17.50
2012,07,05,12,27,17.60
2012,07,05,12,28,17.70
2012,07,05,12,29,17.80
2012,07,05,12,30,17.90
2012,07,05,12,31,17.80
2012,07,05,12,32,17.80
2012,07,05,12,33,17.60
2012,07,05,12,34,17.50
2012,07,05,12,35,17.50
2012,07,05,12,36,17.40
2012,07,05,12,37,17.40
2012,07,05,12,38,17.40
2012,07,05,12,39,17.50
2012,07,05,12,40,17.50
2012,07,05,12,41,17.60
2012,07,05,12,42,17.70
2012,07,05,12,43,17.80
2012,07,05,12,44,17.90
2012,07,05,12,45,17.80
2012,07,05,12,46,17.80
2012,07,05,12,47,17.70
2012,07,05,12,48,17.60
2012,07,05,12,49,17.50
2012,07,05,12,50,17.40
2012,07,05,12,51,17.30
2012,07,05,12,52,17.20
2012,07,05,12,53,17.10
2012,07,05,12,54,17.10
2012,07,05,12,55,17.00
2012,07,05,12,56,17.00
2012,07,05,12,57,16.90
2012,07,05,12,58,17.00
2012,07,05,12,59,17.00
2012,07,05,13,00,16.90
2012,07,05,13,01,16.90
2012,07,05,13,02,16.90
2012,07,05,13,03,16.80
2012,07,05,13,04,16.80
2012,07,05,13,05,16.80
2012,07,05,13,06,16.90
2012,07,05,13,07,16.90
2012,07,05,13,08,16.90
2012,07,05,13,09,17.00
2012,07,05,13,10,17.00
2012,07,05,13,11,17.00
2012,07,05,13,12,17.00
2012,07,05,13,13,17.10
2012,07,05,13,14,17.20
2012,07,05,13,15,17.30
2012,07,05,13,16,17.40
2012,07,05,13,17,17.50
2012,07,05,13,18,17.60
2012,07,05,13,19,17.60
2012,07,05,13,20,17.70
2012,07,05,13,21,17.80
2012,07,05,13,22,17.80
2012,07,05,13,23,17.90
2012,07,05,13,24,18.00
2012,07,05,13,25,18.00
2012,07,05,13,26,18.10
2012,07,05,13,27,18.10
2012,07,05,13,28,18.20
2012,07,05,13,29,18.20
2012,07,05,13,30,18.20
2012,07,05,13,31,18.30
2012,07,05,13,32,18.30
2012,07,05,13,33,18.20
2012,07,05,13,34,18.10
2012,07,05,13,35,18.00
2012,07,05,13,36,18.00
2012,07,05,13,37,18.00
2012,07,05,13,38,18.00
2012,07,05,13,39,18.00
2012,07,05,13,40,18.00
2012,07,05,13,41,18.10
2012,07,05,13,42,18.10
2012,07,05,13,43,18.00
2012,07,05,13,44,18.00
2012,07,05,13,45,18.00
2012,07,05,13,46,18.10
2012,07,05,13,47,18.10
2012,07,05,13,48,18.10
2012,07,05,13,49,18.10
2012,07,05,13,50,18.00
2012,07,05,13,51,17.90
2012,07,05,13,52,18.00
2012,07,05,13,53,18.00
2012,07,05,13,54,18.10
2012,07,05,13,55,18.10
2012,07,05,13,56,18.20
2012,07,05,13,57,18.20
2012,07,05,13,58,18.30
2012,07,05,13,59,18.20
2012,07,05,14,00,18.10
2012,07,05,14,01,17.90
2012,07,05,14,02,17.70
2012,07,05,14,03,17.60
2012,07,05,14,04,17.50
2012,07,05,14,05,17.50
2012,07,05,14,06,17.60
2012,07,05,14,07,17.70
2012,07,05,14,08,17.80
2012,07,05,14,09,18.00
2012,07,05,14,10,18.10
2012,07,05,14,11,18.20
2012,07,05,14,12,18.30
2012,07,05,14,13,18.40
2012,07,05,14,14,18.50
2012,07,05,14,15,18.50
2012,07,05,14,16,18.60
2012,07,05,14,17,18.60
2012,07,05,14,18,18.60
2012,07,05,14,19,18.60
2012,07,05,14,20,18.60
2012,07,05,14,21,18.50
2012,07,05,14,22,18.40
2012,07,05,14,23,18.30
2012,07,05,14,24,18.20
2012,07,05,14,25,18.20
2012,07,05,14,26,18.10
2012,07,05,14,27,18.10
2012,07,05,14,28,18.10
2012,07,05,14,29,18.10
2012,07,05,14,30,18.10
2012,07,05,14,31,18.20
2012,07,05,14,32,18.20
2012,07,05,14,33,18.30
2012,07,05,14,34,18.30
2012,07,05,14,35,18.40
2012,07,05,14,36,18.50
2012,07,05,14,37,18.60
2012,07,05,14,38,18.70
2012,07,05,14,39,18.70
2012,07,05,14,40,18.70
2012,07,05,14,41,18.80
2012,07,05,14,42,18.80
2012,07,05,14,43,18.90
2012,07,05,14,44,18.90
2012,07,05,14,45,18.90
2012,07,05,14,46,18.90
2012,07,05,14,47,18.90
2012,07,05,14,48,19.00
2012,07,05,14,49,19.10
2012,07,05,14,50,19.00
2012,07,05,14,51,18.90
2012,07,05,14,52,18.70
2012,07,05,14,53,18.40
2012,07,05,14,54,18.20
2012,07,05,14,55,18.10
2012,07,05,14,56,18.00
2012,07,05,14,57,18.00
2012,07,05,14,58,17.90
2012,07,05,14,59,17.90
2012,07,05,15,00,17.90
2012,07,05,15,01,18.00
2012,07,05,15,02,18.10
2012,07,05,15,03,18.10
2012,07,05,15,04,18.20
2012,07,05,15,05,18.30
2012,07,05,15,06,18.50
2012,07,05,15,07,18.60
2012,07,05,15,08,18.70
2012,07,05,15,09,18.80
2012,07,05,15,10,19.00
2012,07,05,15,11,19.10
2012,07,05,15,12,19.20
2012,07,05,15,13,19.20
2012,07,05,15,14,19.10
2012,07,05,15,15,19.00
2012,07,05,15,16,18.90
2012,07,05,15,17,18.90
2012,07,05,15,18,18.90
2012,07,05,15,19,18.90
2012,07,05,15,20,18.90
2012,07,05,15,21,18.90
2012,07,05,15,22,18.90
2012,07,05,15,23,18.90
2012,07,05,15,24,18.90
2012,07,05,15,25,19.00
2012,07,05,15,26,19.10
2012,07,05,15,27,19.20
2012,07,05,15,28,19.30
2012,07,05,15,29,19.40
2012,07,05,15,30,19.50
2012,07,05,15,31,19.60
2012,07,05,15,32,19.60
2012,07,05,15,33,19.60
2012,07,05,15,34,19.60
2012,07,05,15,35,19.60
2012,07,05,15,36,19.50
2012,07,05,15,37,19.50
2012,07,05,15,38,19.60
2012,07,05,15,39,19.60
2012,07,05,15,40,19.50
2012,07,05,15,41,19.40
2012,07,05,15,42,19.50
2012,07,05,15,43,19.50
2012,07,05,15,44,19.60
2012,07,05,15,45,19.70
2012,07,05,15,46,19.70
2012,07,05,15,47,19.50
2012,07,05,15,48,19.40
2012,07,05,15,49,19.30
2012,07,05,15,50,19.10
2012,07,05,15,51,19.10
2012,07,05,15,52,19.10
2012,07,05,15,53,19.10
2012,07,05,15,54,19.10
2012,07,05,15,55,19.10
2012,07,05,15,56,19.20
2012,07,05,15,57,19.20
2012,07,05,15,58,19.20
2012,07,05,15,59,19.20
2012,07,05,16,00,19.30
2012,07,05,16,01,19.30
2012,07,05,16,02,19.40
2012,07,05,16,03,19.40
2012,07,05,16,04,19.50
2012,07,05,16,05,19.70
2012,07,05,16,06,19.90
2012,07,05,16,07,20.00
2012,07,05,16,08,20.00
2012,07,05,16,09,20.10
2012,07,05,16,10,20.00
2012,07,05,16,11,19.90
2012,07,05,16,12,19.90
2012,07,05,16,13,19.80
2012,07,05,16,14,19.80
2012,07,05,16,15,19.80
2012,07,05,16,16,19.90
2012,07,05,16,17,20.00
2012,07,05,16,18,20.00
2012,07,05,16,19,20.10
2012,07,05,16,20,20.10
2012,07,05,16,21,20.10
2012,07,05,16,22,20.10
2012,07,05,16,23,20.10
2012,07,05,16,24,20.10
2012,07,05,16,25,20.10
2012,07,05,16,26,20.10
2012,07,05,16,27,20.20
2012,07,05,16,28,20.20
2012,07,05,16,29,20.20
2012,07,05,16,30,20.20
2012,07,05,16,31,20.30
2012,07,05,16,32,20.30
2012,07,05,16,33,20.30
2012,07,05,16,34,20.30
2012,07,05,16,35,20.30
2012,07,05,16,36,20.30
2012,07,05,16,37,20.40
2012,07,05,16,38,20.40
2012,07,05,16,39,20.40
2012,07,05,16,40,20.40
2012,07,05,16,41,20.40
2012,07,05,16,42,20.40
2012,07,05,16,43,20.40
2012,07,05,16,44,20.40
2012,07,05,16,45,20.40
2012,07,05,16,46,20.40
2012,07,05,16,47,20.50
2012,07,05,16,48,20.50
2012,07,05,16,49,20.40
2012,07,05,16,50,20.40
2012,07,05,16,51,20.40
2012,07,05,16,52,20.40
2012,07,05,16,53,20.40
2012,07,05,16,54,20.50
2012,07,05,16,55,20.50
2012,07,05,16,56,20.60
2012,07,05,16,57,20.70
2012,07,05,16,58,20.70
2012,07,05,16,59,20.70
2012,07,05,17,00,20.70
2012,07,05,17,01,20.70
2012,07,05,17,02,20.70
2012,07,05,17,03,20.70
2012,07,05,17,04,20.70
2012,07,05,17,05,20.60
2012,07,05,17,06,20.60
2012,07,05,17,07,20.60
2012,07,05,17,08,20.60
2012,07,05,17,09,20.50
2012,07,05,17,10,20.50
2012,07,05,17,11,20.50
2012,07,05,17,12,20.50
2012,07,05,17,13,20.50
2012,07,05,17,14,20.50
2012,07,05,17,15,20.50
2012,07,05,17,16,20.50
2012,07,05,17,17,20.50
2012,07,05,17,18,20.50
2012,07,05,17,19,20.40
2012,07,05,17,20,20.30
2012,07,05,17,21,20.20
2012,07,05,17,22,20.10
2012,07,05,17,23,20.00
2012,07,05,17,24,20.00
2012,07,05,17,25,20.00
2012,07,05,17,26,20.00
2012,07,05,17,27,19.90
2012,07,05,17,28,19.90
2012,07,05,17,29,19.90
2012,07,05,17,30,20.00
2012,07,05,17,31,20.00
2012,07,05,17,32,20.10
2012,07,05,17,33,20.20
2012,07,05,17,34,20.20
2012,07,05,17,35,20.30